Location: Hannover
(52.3723°N, 9.7339°E)
Time: 10:57:54
(UTC+01:00)

ISS - Pass Details

Date: 11 January 2018
Orbit: 402 x 407 km, 51.6° (Epoch: 18 January)

Event Time Altitude Azimuth Distance (km) Brightness Sun altitude
Exits shadow 05:41:18 31° 128° (SE) 739 -2.1 -24.3°
Drops below altitude 10° 05:43:13 10° 116° (ESE) 1,466 -0.1 -24.0°
Sets 05:45:18 0° 112° (ESE) 2,326 1.3 -23.7°
